DECAYED

TRANSIT 5B-2 DEB, 42666 (Decayed)

Orbit data source: Space-Track

TRANSIT 5B-2 DEB, 42666 was space debris in LEO originally from a launch on Thu, 05 Dec 1963 UTC launched from the Air Force Western Test Range (AFWTR). Debris objects in space refer to the collection of defunct objects orbiting the Earth. Examples of debris include non-operational satellites, rocket bodies, and fragments generated from explosions, collisions, or faulty payload assembly.

Not visible in the next 10 days
Identifier
42666, 1963-049P
Orbit
Decayed
Last TLE update
4 months ago
Origin
Manufacturer
Unknown
Mission
Decayed spacecraft
Bus & Motor
Unknown
Mass
Unknown
Launch date (UTC)
1963-12-05 (62 years ago)
Launch vehicle
Unknown
Launch site
Air Force Western Test Range (AFWTR)
Object type
Payload
Rocket body
Debris
Shape & HBR
Unknown
Radar Cross Section
Small (<0.1 m²)

Expand to show TLE details & history

TLE from 4 months ago
0 TRANSIT 5B-2 DEB
1 42666U 63049P   25070.48595541  .02709717  00000-0  70485-1 0  9999
2 42666  89.8360  72.3927 0027257 163.1186 197.0982 15.35139875570789
Epoch: 2025-03-11T11:39Z
TLE epoch observation values (Epoch: 2025-03-11T11:39:46.547Z)
Latitude
0.00003°
Longitude
88.06054°
Altitude
481.548 km
Speed
7.615 km/s
True Right ascension
04h 49m 34s
True Declination
0° 00' 00"
Sunlit
Object was in daylight at epoch
Visualization orbit readout
Visualization observer readout
Orbital elements
Apogee altitude
475.922 km
Perigee altitude
438.659 km
Semi-major axis
6,835.427 km
Eccentricity
0.00273
Inclination
89.836°
RAAN
72.3927°
Arg. of periapsis
163.1186°
True anomaly
Unknown
Mean anomaly
197.0982°
Eccentric anomaly
Unknown
Mean motion
3.84056 °/min
Orbital period
93.74 mins
BSTAR
0.070485
Loading maneuver chart data...
Loading SW <> Apogee altitude chart data...
Loading historical data...
Loading historical data...
Loading historical data...
Loading historical data...
Loading historical data...
Loading historical data...
Loading historical data...

TRANSIT 5B-2 DEB Visibility

Observer location: undefined°, undefined°

This satellite is decayed
Span
Click to sort rows by Start time (UTC) header in descending order
Start Az.
Max El. time (UTC)
Max El. Az.
Max El.
End time (UTC)
End Az.
|